User: anonymous
Location: Frydek-Mistek
(49.6830°N, 18.3330°E)
Time: 05:19:00
(UTC+02:00)
Language:

Courier 1B Rocket - Orbit

View from above orbital plane
View from above orbital plane
View from above satellite
View from above satellite

Ground track
Ground track

The orbit data is extracted from the following two-line orbital elements,

1 00059U 60013B   14111.77801838  .00000139  00000-0  67702-4 0  8981
2 00059 028.2483 248.5491 0189193 133.3787 228.2682 13.52888718642361
Epoch (UTC): 21 April 2014 18:40:20
Eccentricity: 0.0189193
inclination: 28.2483°
perigee height: 921 km
apogee height: 1202 km
right ascension of ascending node: 248.5491°
argument of perigee: 133.3787°
revolutions per day: 13.52888718
mean anomaly at epoch: 228.2682°
orbit number at epoch: 64236

The dashed part of the orbit path shows where the satellite is in the earth's shadow,  

DLR